AFR606 LLBG-LKPR

Flight info

Callsign AFR606
Flight time 3h 17m
Altitude 34000
Route LLBG/26 N0466F340 SUVA1E SUVAS N128 TEZAK L324 SAFTA DCT TOMBI UA16 AYT UQ26 TUDBU Q26 ETUBA DCT VAMON DCT NORAH DCT LALES DCT TUMKA DCT VLM VLM6T LKPR/06
Aircraft A321/L-V/N

Departure

Time 2026-05-03 21:20
Airport Ben Gurion International Airport (LLBG)

Arrival

Time 2026-05-04 00:37
Airport Václav Havel Airport Prague (LKPR)
Time Latitude Longitude Altitude Speed Heading
2026-05-03 20:59 32.00597 34.87486 125 ft 0 kts 241°
2026-05-03 21:08 32.00600 34.87492 125 ft 2 kts 241°
2026-05-03 21:08 32.00608 34.87510 124 ft 2 kts 241°
2026-05-03 21:09 32.00614 34.87523 124 ft 0 kts 241°
2026-05-03 21:09 32.00626 34.87539 124 ft 2 kts 210°
2026-05-03 21:09 32.00644 34.87546 124 ft 2 kts 182°
2026-05-03 21:09 32.00660 34.87543 124 ft 2 kts 155°
2026-05-03 21:10 32.00675 34.87530 124 ft 1 kts 127°
2026-05-03 21:10 32.00679 34.87523 124 ft 0 kts 123°
2026-05-03 21:12 32.00677 34.87526 124 ft 1 kts 123°
2026-05-03 21:12 32.00670 34.87540 124 ft 2 kts 122°
2026-05-03 21:12 32.00655 34.87567 124 ft 4 kts 122°
2026-05-03 21:12 32.00633 34.87608 125 ft 5 kts 122°
2026-05-03 21:13 32.00611 34.87650 126 ft 4 kts 121°
2026-05-03 21:13 32.00591 34.87690 126 ft 5 kts 121°
2026-05-03 21:13 32.00563 34.87746 126 ft 8 kts 121°
2026-05-03 21:13 32.00526 34.87823 126 ft 9 kts 109°
2026-05-03 21:14 32.00557 34.87893 128 ft 9 kts 38°
2026-05-03 21:14 32.00619 34.87941 127 ft 10 kts 32°
2026-05-03 21:14 32.00693 34.87994 126 ft 11 kts 29°
2026-05-03 21:14 32.00773 34.88046 127 ft 11 kts 30°
2026-05-03 21:15 32.00850 34.88103 126 ft 12 kts 34°
2026-05-03 21:15 32.00934 34.88170 127 ft 14 kts 33°
2026-05-03 21:15 32.01031 34.88238 127 ft 15 kts 30°
2026-05-03 21:15 32.01131 34.88307 127 ft 15 kts 31°
2026-05-03 21:16 32.01230 34.88378 127 ft 15 kts 34°
2026-05-03 21:16 32.01316 34.88460 127 ft 15 kts 41°
2026-05-03 21:16 32.01396 34.88559 128 ft 15 kts 52°
2026-05-03 21:16 32.01451 34.88661 130 ft 13 kts 64°
2026-05-03 21:17 32.01486 34.88767 130 ft 13 kts 77°
2026-05-03 21:17 32.01502 34.88881 131 ft 13 kts 80°
2026-05-03 21:17 32.01519 34.88990 133 ft 12 kts 79°
2026-05-03 21:17 32.01535 34.89086 135 ft 10 kts 79°
2026-05-03 21:18 32.01549 34.89175 136 ft 10 kts 79°
2026-05-03 21:18 32.01584 34.89260 135 ft 11 kts 31°
2026-05-03 21:18 32.01649 34.89262 135 ft 3 kts 346°
2026-05-03 21:18 32.01659 34.89259 135 ft 0 kts 346°
2026-05-03 21:19 32.01660 34.89259 135 ft 0 kts 346°
2026-05-03 21:19 32.01726 34.89239 135 ft 10 kts 338°
2026-05-03 21:19 32.01758 34.89150 133 ft 12 kts 259°
2026-05-03 21:20 32.01728 34.88985 133 ft 41 kts 258°
2026-05-03 21:20 32.01608 34.88216 127 ft 120 kts 260°
2026-05-03 21:20 32.01392 34.86808 144 ft 178 kts 260°
2026-05-03 21:20 32.01165 34.85303 836 ft 176 kts 258°
2026-05-03 21:21 32.00872 34.83850 1680 ft 173 kts 257°
2026-05-03 21:21 32.00577 34.82448 2268 ft 172 kts 257°
2026-05-03 21:21 32.00261 34.80943 2539 ft 185 kts 257°
2026-05-03 21:21 31.99925 34.79343 2813 ft 198 kts 257°
2026-05-03 21:22 31.99576 34.77685 3021 ft 216 kts 257°
2026-05-03 21:22 31.99273 34.75882 3301 ft 231 kts 267°
2026-05-03 21:22 31.99436 34.73974 3672 ft 243 kts 284°
2026-05-03 21:22 31.99991 34.72094 4301 ft 246 kts 288°
2026-05-03 21:23 32.00590 34.70200 4948 ft 247 kts 288°
2026-05-03 21:23 32.01187 34.68312 5580 ft 249 kts 288°
2026-05-03 21:23 32.01795 34.66378 6219 ft 251 kts 287°
2026-05-03 21:23 32.02348 34.64433 6842 ft 252 kts 281°
2026-05-03 21:24 32.02679 34.62435 7469 ft 251 kts 274°
2026-05-03 21:24 32.02826 34.60388 7893 ft 251 kts 271°
2026-05-03 21:24 32.02935 34.58347 8027 ft 251 kts 270°
2026-05-03 21:24 32.03042 34.56289 8031 ft 250 kts 270°
2026-05-03 21:25 32.03148 34.54249 8032 ft 250 kts 271°
2026-05-03 21:25 32.03255 34.52213 8033 ft 250 kts 271°
2026-05-03 21:25 32.03361 34.50154 8193 ft 256 kts 271°
2026-05-03 21:25 32.03471 34.48079 8858 ft 255 kts 271°
2026-05-03 21:26 32.03584 34.45992 9548 ft 254 kts 270°
2026-05-03 21:26 32.03694 34.43949 10163 ft 254 kts 270°
2026-05-03 21:26 32.03812 34.41842 10608 ft 262 kts 270°
2026-05-03 21:26 32.03933 34.39655 10865 ft 276 kts 270°
2026-05-03 21:27 32.04063 34.37375 11110 ft 289 kts 270°
2026-05-03 21:27 32.04202 34.34939 11345 ft 302 kts 270°
2026-05-03 21:27 32.04342 34.32444 11583 ft 314 kts 270°
2026-05-03 21:27 32.04490 34.29840 11810 ft 326 kts 271°
2026-05-03 21:28 32.04646 34.27121 12025 ft 337 kts 271°
2026-05-03 21:28 32.05020 34.24342 12215 ft 352 kts 279°
2026-05-03 21:28 32.05802 34.21553 12409 ft 366 kts 288°
2026-05-03 21:28 32.06988 34.18856 12742 ft 375 kts 294°
2026-05-03 21:29 32.08313 34.16221 13222 ft 376 kts 295°
2026-05-03 21:29 32.09663 34.13582 13680 ft 378 kts 295°
2026-05-03 21:29 32.11017 34.10931 14114 ft 379 kts 295°
2026-05-03 21:29 32.12381 34.08251 14535 ft 381 kts 294°
2026-05-03 21:30 32.13745 34.05569 14942 ft 383 kts 294°
2026-05-03 21:30 32.15111 34.02877 15326 ft 386 kts 294°
2026-05-03 21:30 32.16499 34.00174 15708 ft 389 kts 295°
2026-05-03 21:30 32.17844 33.97789 16090 ft 391 kts 297°
2026-05-03 21:31 32.18771 33.96237 16317 ft 393 kts 298°
2026-05-03 21:31 32.20344 33.93619 16660 ft 395 kts 298°
2026-05-03 21:31 32.21934 33.90986 17027 ft 397 kts 298°
2026-05-03 21:31 32.23536 33.88332 17382 ft 398 kts 298°
2026-05-03 21:32 32.25155 33.85650 17741 ft 399 kts 298°
2026-05-03 21:32 32.26754 33.82989 18035 ft 401 kts 298°
2026-05-03 21:32 32.28373 33.80298 18383 ft 403 kts 298°
2026-05-03 21:32 32.29995 33.77602 18683 ft 404 kts 298°
2026-05-03 21:33 32.31613 33.74905 19009 ft 405 kts 298°
2026-05-03 21:33 32.33258 33.72165 19314 ft 406 kts 298°
2026-05-03 21:33 32.34880 33.69460 19585 ft 408 kts 298°
2026-05-03 21:33 32.36527 33.66712 19877 ft 409 kts 298°
2026-05-03 21:34 32.37225 33.65546 19994 ft 410 kts 297°
2026-05-03 21:34 32.37505 33.65080 20041 ft 410 kts 297°
2026-05-03 21:34 32.39164 33.62310 20290 ft 412 kts 297°
2026-05-03 21:34 32.40818 33.59539 20570 ft 413 kts 298°
2026-05-03 21:35 32.42475 33.56768 20855 ft 414 kts 298°
2026-05-03 21:35 32.44135 33.53989 21091 ft 416 kts 297°
2026-05-03 21:35 32.45794 33.51208 21289 ft 418 kts 298°
2026-05-03 21:35 32.47486 33.48370 21388 ft 423 kts 297°
2026-05-03 21:36 32.49179 33.45521 21464 ft 428 kts 298°
2026-05-03 21:36 32.50911 33.42607 21543 ft 433 kts 298°
2026-05-03 21:36 32.52640 33.39698 21647 ft 438 kts 298°
2026-05-03 21:36 32.54413 33.36718 21786 ft 442 kts 298°
2026-05-03 21:37 32.56170 33.33761 22025 ft 443 kts 297°
2026-05-03 21:37 32.57941 33.30785 22365 ft 443 kts 297°
2026-05-03 21:37 32.59707 33.27811 22648 ft 443 kts 297°
2026-05-03 21:37 32.61492 33.24799 22854 ft 445 kts 297°
2026-05-03 21:38 32.63262 33.21812 23101 ft 446 kts 297°
2026-05-03 21:38 32.65049 33.18790 23408 ft 446 kts 297°
2026-05-03 21:38 32.66818 33.15802 23742 ft 445 kts 297°
2026-05-03 21:38 32.68586 33.12812 24059 ft 444 kts 297°
2026-05-03 21:39 32.70353 33.09821 24385 ft 443 kts 297°
2026-05-03 21:39 32.72124 33.06818 24722 ft 442 kts 297°
2026-05-03 21:39 32.73865 33.03867 25095 ft 439 kts 297°
2026-05-03 21:39 32.75614 33.00894 25430 ft 438 kts 297°
2026-05-03 21:40 32.77344 32.97957 25791 ft 436 kts 297°
2026-05-03 21:40 32.79088 32.94989 26132 ft 435 kts 297°
2026-05-03 21:40 32.80802 32.92071 26442 ft 434 kts 297°
2026-05-03 21:40 32.82521 32.89140 26746 ft 434 kts 297°
2026-05-03 21:41 32.84240 32.86210 27043 ft 433 kts 296°
2026-05-03 21:41 32.85967 32.83263 27349 ft 432 kts 296°
2026-05-03 21:41 32.87670 32.80353 27673 ft 431 kts 296°
2026-05-03 21:41 32.89386 32.77425 28014 ft 429 kts 296°
2026-05-03 21:42 32.91075 32.74536 28324 ft 428 kts 296°
2026-05-03 21:42 32.92776 32.71625 28639 ft 426 kts 296°
2026-05-03 21:42 32.94454 32.68753 28950 ft 425 kts 296°
2026-05-03 21:42 32.96122 32.65891 29245 ft 424 kts 296°
2026-05-03 21:43 32.97814 32.62991 29570 ft 422 kts 296°
2026-05-03 21:43 32.99469 32.60148 29895 ft 420 kts 296°
2026-05-03 21:43 33.01132 32.57290 30198 ft 418 kts 296°
2026-05-03 21:43 33.02767 32.54480 30447 ft 417 kts 295°
2026-05-03 21:44 33.04417 32.51638 30679 ft 416 kts 295°
2026-05-03 21:44 33.06057 32.48809 30843 ft 417 kts 295°
2026-05-03 21:44 33.07717 32.45947 31032 ft 418 kts 295°
2026-05-03 21:44 33.09340 32.43150 31271 ft 417 kts 295°
2026-05-03 21:45 33.10992 32.40300 31478 ft 416 kts 295°
2026-05-03 21:45 33.12648 32.37436 31621 ft 417 kts 295°
2026-05-03 21:45 33.14272 32.34623 31796 ft 417 kts 294°
2026-05-03 21:45 33.15926 32.31764 32038 ft 416 kts 294°
2026-05-03 21:46 33.17552 32.28947 32222 ft 416 kts 294°
2026-05-03 21:46 33.19197 32.26095 32375 ft 416 kts 294°
2026-05-03 21:46 33.20839 32.23249 32531 ft 417 kts 294°
2026-05-03 21:46 33.22478 32.20402 32699 ft 418 kts 294°
2026-05-03 21:47 33.25778 32.14663 32873 ft 422 kts 294°
2026-05-03 21:47 33.27428 32.11793 32990 ft 423 kts 294°
2026-05-03 21:47 33.29080 32.08917 33167 ft 423 kts 294°
2026-05-03 21:48 33.30753 32.06006 33283 ft 424 kts 294°
2026-05-03 21:48 33.32406 32.03122 33402 ft 424 kts 294°
2026-05-03 21:48 33.34088 32.00187 33559 ft 424 kts 295°
2026-05-03 21:48 33.35748 31.97288 33643 ft 425 kts 295°
2026-05-03 21:49 33.39072 31.91470 33821 ft 427 kts 295°
2026-05-03 21:49 33.42580 31.85729 33844 ft 436 kts 301°
2026-05-03 21:50 33.47086 31.80661 33862 ft 453 kts 313°
2026-05-03 21:50 33.52569 31.76694 33876 ft 471 kts 326°
2026-05-03 21:51 33.58823 31.74022 33863 ft 481 kts 334°
2026-05-03 21:51 33.65250 31.71757 33875 ft 483 kts 335°
2026-05-03 21:52 33.71704 31.69459 33878 ft 482 kts 334°
2026-05-03 21:52 33.78120 31.67135 33871 ft 482 kts 334°
2026-05-03 21:53 33.84533 31.64796 33867 ft 483 kts 335°
2026-05-03 21:53 33.90935 31.62456 33865 ft 484 kts 335°
2026-05-03 21:54 33.97375 31.60102 33863 ft 484 kts 335°
2026-05-03 21:54 34.03821 31.57741 33868 ft 485 kts 335°
2026-05-03 21:55 34.10295 31.55367 33855 ft 485 kts 335°
2026-05-03 21:55 34.16713 31.53009 33838 ft 486 kts 335°
2026-05-03 21:56 34.23190 31.50623 33836 ft 487 kts 335°
2026-05-03 21:56 34.29673 31.48235 33838 ft 488 kts 335°
2026-05-03 21:57 34.36166 31.45839 33841 ft 487 kts 335°
2026-05-03 21:57 34.42650 31.43440 33832 ft 488 kts 335°
2026-05-03 21:58 34.49161 31.41027 33841 ft 489 kts 335°
2026-05-03 21:58 34.55674 31.38611 33838 ft 489 kts 336°
2026-05-03 21:59 34.62162 31.36198 33838 ft 490 kts 336°
2026-05-03 21:59 34.68670 31.33778 33844 ft 490 kts 335°
2026-05-03 22:00 34.75193 31.31343 33842 ft 491 kts 336°
2026-05-03 22:00 34.81738 31.28898 33840 ft 493 kts 335°
2026-05-03 22:01 34.88266 31.26458 33837 ft 493 kts 335°
2026-05-03 22:01 34.94833 31.23996 33829 ft 494 kts 336°
2026-05-03 22:02 35.01385 31.21537 33817 ft 495 kts 336°
2026-05-03 22:02 35.07987 31.19054 33825 ft 496 kts 336°
2026-05-03 22:03 35.14591 31.16567 33817 ft 497 kts 336°
2026-05-03 22:03 35.21175 31.14083 33816 ft 497 kts 336°
2026-05-03 22:04 35.27784 31.11587 33809 ft 497 kts 336°
2026-05-03 22:04 35.34384 31.09086 33811 ft 498 kts 336°
2026-05-03 22:05 35.41000 31.06577 33843 ft 498 kts 336°
2026-05-03 22:05 35.47582 31.04079 33824 ft 498 kts 336°
2026-05-03 22:06 35.54198 31.01560 33805 ft 499 kts 337°
2026-05-03 22:06 35.60818 30.99037 33801 ft 499 kts 336°
2026-05-03 22:07 35.67465 30.96499 33803 ft 500 kts 337°
2026-05-03 22:07 35.74118 30.93953 33788 ft 501 kts 337°
2026-05-03 22:08 35.80794 30.91397 33780 ft 502 kts 337°
2026-05-03 22:08 35.87423 30.88852 33784 ft 502 kts 337°
2026-05-03 22:09 35.94119 30.86278 33771 ft 502 kts 337°
2026-05-03 22:10 36.04308 30.83035 33778 ft 509 kts 346°
2026-05-03 22:10 36.11379 30.82112 33770 ft 515 kts 354°
2026-05-03 22:11 36.18524 30.81883 33774 ft 515 kts 355°
2026-05-03 22:11 36.25690 30.81704 33789 ft 515 kts 355°
2026-05-03 22:12 36.32879 30.81478 33773 ft 516 kts 355°
2026-05-03 22:12 36.40018 30.81243 33780 ft 516 kts 355°
2026-05-03 22:13 36.47197 30.80994 33763 ft 517 kts 355°
2026-05-03 22:13 36.54366 30.80746 33780 ft 517 kts 355°
2026-05-03 22:14 36.61591 30.80494 33766 ft 518 kts 355°
2026-05-03 22:14 36.68793 30.80247 33757 ft 518 kts 355°
2026-05-03 22:15 36.75982 30.79997 33769 ft 518 kts 356°
2026-05-03 22:15 36.83182 30.79752 33761 ft 518 kts 356°
2026-05-03 22:16 36.90362 30.79501 33773 ft 518 kts 356°
2026-05-03 22:16 36.97577 30.79467 33751 ft 519 kts 359°
2026-05-03 22:17 37.04776 30.79579 33758 ft 520 kts 359°
2026-05-03 22:17 37.12044 30.79686 33752 ft 521 kts 359°
2026-05-03 22:18 37.19257 30.79786 33754 ft 521 kts 358°
2026-05-03 22:18 37.26533 30.79880 33755 ft 521 kts 359°
2026-05-03 22:19 37.33746 30.79974 33762 ft 522 kts 359°
2026-05-03 22:19 37.41034 30.80070 33758 ft 523 kts 359°
2026-05-03 22:20 37.48268 30.80165 33763 ft 522 kts 359°
2026-05-03 22:20 37.55528 30.80258 33752 ft 522 kts 359°
2026-05-03 22:21 37.62780 30.80352 33769 ft 523 kts 359°
2026-05-03 22:21 37.70083 30.80450 33766 ft 523 kts 359°
2026-05-03 22:22 37.77320 30.80543 33757 ft 523 kts 359°
2026-05-03 22:22 37.84605 30.80637 33761 ft 524 kts 359°
2026-05-03 22:23 37.91872 30.80735 33775 ft 524 kts 359°
2026-05-03 22:23 37.99142 30.80829 33781 ft 525 kts 359°
2026-05-03 22:24 38.06480 30.80933 33778 ft 525 kts 359°
2026-05-03 22:24 38.13754 30.80795 33792 ft 523 kts 354°
2026-05-03 22:25 38.20925 30.79790 33805 ft 521 kts 350°
2026-05-03 22:25 38.28103 30.78557 33791 ft 521 kts 349°
2026-05-03 22:26 38.35283 30.77340 33799 ft 521 kts 349°
2026-05-03 22:26 38.42507 30.76137 33766 ft 522 kts 350°
2026-05-03 22:27 38.49660 30.74951 33801 ft 522 kts 350°
2026-05-03 22:27 38.56878 30.73751 33804 ft 522 kts 350°
2026-05-03 22:28 38.64062 30.72561 33800 ft 522 kts 350°
2026-05-03 22:28 38.71265 30.71356 33824 ft 521 kts 350°
2026-05-03 22:29 38.78440 30.70066 33829 ft 520 kts 347°
2026-05-03 22:29 38.85408 30.67900 33847 ft 516 kts 339°
2026-05-03 22:30 38.92082 30.64610 33835 ft 512 kts 330°
2026-05-03 22:30 38.98387 30.60558 33841 ft 509 kts 327°
2026-05-03 22:31 39.04667 30.56391 33845 ft 509 kts 328°
2026-05-03 22:31 39.10971 30.52241 33840 ft 510 kts 328°
2026-05-03 22:32 39.17267 30.48109 33838 ft 509 kts 328°
2026-05-03 22:32 39.23592 30.43965 33843 ft 509 kts 328°
2026-05-03 22:33 39.29887 30.39822 33844 ft 508 kts 328°
2026-05-03 22:33 39.36158 30.35693 33840 ft 507 kts 329°
2026-05-03 22:34 39.42427 30.31556 33842 ft 506 kts 328°
2026-05-03 22:34 39.48679 30.27432 33837 ft 506 kts 329°
2026-05-03 22:35 39.55112 30.23776 33844 ft 508 kts 333°
2026-05-03 22:35 39.61622 30.20333 33854 ft 508 kts 333°
2026-05-03 22:36 39.68140 30.16876 33836 ft 505 kts 333°
2026-05-03 22:36 39.74629 30.13407 33852 ft 506 kts 334°
2026-05-03 22:37 39.81107 30.09930 33849 ft 505 kts 334°
2026-05-03 22:37 39.87603 30.06441 33866 ft 504 kts 333°
2026-05-03 22:38 39.94087 30.02946 33878 ft 504 kts 334°
2026-05-03 22:38 40.00541 29.99464 33898 ft 504 kts 333°
2026-05-03 22:39 40.07000 29.95967 33924 ft 504 kts 334°
2026-05-03 22:39 40.13460 29.92468 33935 ft 503 kts 334°
2026-05-03 22:40 40.19893 29.88975 33948 ft 501 kts 334°
2026-05-03 22:40 40.26297 29.85487 33965 ft 500 kts 334°
2026-05-03 22:41 40.32737 29.81975 33967 ft 500 kts 334°
2026-05-03 22:41 40.39137 29.78479 33966 ft 500 kts 334°
2026-05-03 22:42 40.45530 29.74978 33970 ft 499 kts 334°
2026-05-03 22:42 40.51908 29.71481 33965 ft 499 kts 334°
2026-05-03 22:43 40.58303 29.67961 33968 ft 499 kts 334°
2026-05-03 22:43 40.64542 29.64044 33979 ft 496 kts 328°
2026-05-03 22:44 40.70326 29.59215 33984 ft 491 kts 320°
2026-05-03 22:44 40.75668 29.53706 33993 ft 491 kts 317°
2026-05-03 22:45 40.80981 29.48039 33999 ft 490 kts 317°
2026-05-03 22:45 40.86237 29.42458 33995 ft 489 kts 317°
2026-05-03 22:46 40.91544 29.36829 34001 ft 489 kts 317°
2026-05-03 22:46 40.96840 29.31205 33999 ft 489 kts 317°
2026-05-03 22:47 41.02143 29.25564 34013 ft 488 kts 317°
2026-05-03 22:47 41.07400 29.19899 34015 ft 486 kts 315°
2026-05-03 22:48 41.12219 29.13721 34017 ft 482 kts 308°
2026-05-03 22:48 41.16410 29.06881 34022 ft 477 kts 301°
2026-05-03 22:49 41.20094 28.99619 34021 ft 476 kts 299°
2026-05-03 22:49 41.23710 28.92318 34020 ft 476 kts 299°
2026-05-03 22:50 41.27352 28.84987 34026 ft 477 kts 299°
2026-05-03 22:50 41.31017 28.77608 34025 ft 477 kts 300°
2026-05-03 22:51 41.34647 28.70290 34042 ft 478 kts 300°
2026-05-03 22:51 41.38308 28.62895 34040 ft 478 kts 300°
2026-05-03 22:52 41.41949 28.55523 34036 ft 478 kts 300°
2026-05-03 22:52 41.45591 28.48125 34048 ft 478 kts 300°
2026-05-03 22:53 41.49468 28.40944 34056 ft 480 kts 306°
2026-05-03 22:53 41.53935 28.34363 34060 ft 482 kts 312°
2026-05-03 22:54 41.58706 28.28096 34057 ft 482 kts 313°
2026-05-03 22:54 41.63477 28.21846 34072 ft 482 kts 313°
2026-05-03 22:55 41.68227 28.15582 34080 ft 482 kts 313°
2026-05-03 22:55 41.73000 28.09262 34090 ft 482 kts 313°
2026-05-03 22:56 41.77742 28.02969 34090 ft 482 kts 313°
2026-05-03 22:56 41.82484 27.96658 34100 ft 481 kts 313°
2026-05-03 22:57 41.87199 27.90373 34099 ft 480 kts 313°
2026-05-03 22:57 41.91903 27.84086 34107 ft 479 kts 314°
2026-05-03 22:58 41.96622 27.77760 34107 ft 479 kts 314°
2026-05-03 22:58 42.01271 27.71436 34113 ft 479 kts 314°
2026-05-03 22:59 42.05918 27.65064 34119 ft 480 kts 314°
2026-05-03 22:59 42.10584 27.58654 34118 ft 480 kts 314°
2026-05-03 23:00 42.15234 27.52260 34125 ft 480 kts 314°
2026-05-03 23:00 42.19902 27.45827 34128 ft 479 kts 314°
2026-05-03 23:01 42.24546 27.39411 34140 ft 478 kts 314°
2026-05-03 23:01 42.29149 27.33040 34142 ft 478 kts 314°
2026-05-03 23:02 42.33789 27.26598 34153 ft 477 kts 314°
2026-05-03 23:02 42.38387 27.20204 34158 ft 476 kts 314°
2026-05-03 23:03 42.42960 27.13832 34167 ft 476 kts 314°
2026-05-03 23:03 42.47570 27.07392 34179 ft 475 kts 315°
2026-05-03 23:04 42.52135 27.01004 34176 ft 475 kts 314°
2026-05-03 23:04 42.56723 26.94566 34185 ft 475 kts 315°
2026-05-03 23:05 42.61273 26.88164 34183 ft 474 kts 315°
2026-05-03 23:05 42.65835 26.81734 34194 ft 474 kts 315°
2026-05-03 23:06 42.70416 26.75260 34192 ft 474 kts 315°
2026-05-03 23:06 42.74952 26.68839 34200 ft 473 kts 315°
2026-05-03 23:07 42.79484 26.62408 34190 ft 473 kts 316°
2026-05-03 23:07 42.84261 26.56296 34181 ft 471 kts 321°
2026-05-03 23:08 42.89203 26.50517 34172 ft 471 kts 321°
2026-05-03 23:08 42.94164 26.44730 34176 ft 470 kts 321°
2026-05-03 23:09 42.99118 26.38923 34197 ft 469 kts 322°
2026-05-03 23:09 43.04047 26.33130 34197 ft 469 kts 321°
2026-05-03 23:10 43.08977 26.27318 34196 ft 468 kts 321°
2026-05-03 23:10 43.13858 26.21550 34202 ft 467 kts 321°
2026-05-03 23:11 43.18783 26.15716 34216 ft 467 kts 321°
2026-05-03 23:11 43.23660 26.09928 34231 ft 467 kts 321°
2026-05-03 23:12 43.28534 26.04129 34238 ft 465 kts 321°
2026-05-03 23:12 43.33398 25.98329 34243 ft 465 kts 322°
2026-05-03 23:13 43.38292 25.92480 34243 ft 465 kts 322°
2026-05-03 23:13 43.43147 25.86668 34245 ft 465 kts 322°
2026-05-03 23:14 43.47982 25.80862 34250 ft 464 kts 322°
2026-05-03 23:14 43.52850 25.75008 34245 ft 463 kts 322°
2026-05-03 23:15 43.57668 25.69202 34248 ft 462 kts 323°
2026-05-03 23:15 43.62499 25.63367 34262 ft 463 kts 323°
2026-05-03 23:16 43.67318 25.57528 34261 ft 461 kts 323°
2026-05-03 23:16 43.72118 25.51702 34263 ft 461 kts 323°
2026-05-03 23:17 43.76923 25.45862 34263 ft 461 kts 323°
2026-05-03 23:17 43.81697 25.40040 34273 ft 461 kts 323°
2026-05-03 23:18 43.86480 25.34198 34266 ft 459 kts 323°
2026-05-03 23:18 43.91271 25.28334 34256 ft 460 kts 323°
2026-05-03 23:19 43.96059 25.22456 34279 ft 458 kts 323°
2026-05-03 23:19 44.00810 25.16613 34266 ft 457 kts 323°
2026-05-03 23:20 44.05547 25.10776 34264 ft 457 kts 323°
2026-05-03 23:20 44.10279 25.04931 34262 ft 457 kts 324°
2026-05-03 23:21 44.15028 24.99046 34258 ft 455 kts 324°
2026-05-03 23:21 44.19723 24.93219 34268 ft 455 kts 324°
2026-05-03 23:22 44.26807 24.84408 34256 ft 455 kts 324°
2026-05-03 23:22 44.31513 24.78535 34255 ft 454 kts 325°
2026-05-03 23:23 44.36198 24.72674 34261 ft 454 kts 324°
2026-05-03 23:23 44.40848 24.66727 34257 ft 455 kts 323°
2026-05-03 23:24 44.45325 24.60548 34259 ft 455 kts 322°
2026-05-03 23:24 44.49806 24.54296 34262 ft 455 kts 322°
2026-05-03 23:25 44.54265 24.48068 34250 ft 455 kts 322°
2026-05-03 23:25 44.58738 24.41813 34263 ft 454 kts 323°
2026-05-03 23:26 44.63182 24.35591 34249 ft 453 kts 323°
2026-05-03 23:26 44.67648 24.29321 34259 ft 454 kts 322°
2026-05-03 23:27 44.72097 24.23060 34271 ft 454 kts 322°
2026-05-03 23:27 44.76541 24.16794 34275 ft 455 kts 322°
2026-05-03 23:28 44.80977 24.10521 34247 ft 455 kts 322°
2026-05-03 23:28 44.85426 24.04215 34266 ft 454 kts 323°
2026-05-03 23:29 44.89854 23.97925 34260 ft 452 kts 323°
2026-05-03 23:29 44.94276 23.91630 34253 ft 453 kts 323°
2026-05-03 23:30 44.98708 23.85308 34243 ft 453 kts 323°
2026-05-03 23:30 45.03126 23.78990 34248 ft 452 kts 323°
2026-05-03 23:31 45.07535 23.72672 34217 ft 454 kts 323°
2026-05-03 23:31 45.11933 23.66350 34210 ft 452 kts 323°
2026-05-03 23:32 45.16346 23.59997 34190 ft 453 kts 323°
2026-05-03 23:32 45.20732 23.53664 34168 ft 452 kts 323°
2026-05-03 23:33 45.25106 23.47337 34145 ft 451 kts 323°
2026-05-03 23:33 45.29493 23.40969 34154 ft 451 kts 323°
2026-05-03 23:34 45.33829 23.34665 34157 ft 450 kts 322°
2026-05-03 23:34 45.38195 23.28307 34165 ft 450 kts 322°
2026-05-03 23:35 45.42579 23.21903 34172 ft 451 kts 322°
2026-05-03 23:35 45.46911 23.15558 34175 ft 449 kts 322°
2026-05-03 23:36 45.51248 23.09196 34191 ft 449 kts 322°
2026-05-03 23:36 45.55580 23.02822 34203 ft 449 kts 322°
2026-05-03 23:37 45.59915 22.96437 34217 ft 450 kts 322°
2026-05-03 23:37 45.64255 22.90018 34207 ft 449 kts 322°
2026-05-03 23:38 45.68531 22.83681 34207 ft 449 kts 322°
2026-05-03 23:38 45.72847 22.77274 34201 ft 450 kts 322°
2026-05-03 23:39 45.77160 22.70852 34197 ft 449 kts 321°
2026-05-03 23:39 45.81481 22.64402 34190 ft 448 kts 321°
2026-05-03 23:40 45.85773 22.57983 34192 ft 447 kts 321°
2026-05-03 23:40 45.90061 22.51555 34195 ft 447 kts 321°
2026-05-03 23:41 45.94349 22.45115 34197 ft 448 kts 321°
2026-05-03 23:41 45.98634 22.38659 34208 ft 448 kts 321°
2026-05-03 23:42 46.02913 22.32198 34211 ft 448 kts 320°
2026-05-03 23:42 46.07211 22.25689 34210 ft 449 kts 320°
2026-05-03 23:43 46.11491 22.19197 34213 ft 449 kts 320°
2026-05-03 23:43 46.15775 22.12680 34212 ft 448 kts 320°
2026-05-03 23:44 46.20048 22.06166 34211 ft 448 kts 320°
2026-05-03 23:44 46.24292 21.99678 34210 ft 449 kts 320°
2026-05-03 23:45 46.28582 21.93104 34216 ft 449 kts 320°
2026-05-03 23:45 46.32854 21.86544 34216 ft 448 kts 319°
2026-05-03 23:46 46.37098 21.80008 34216 ft 448 kts 319°
2026-05-03 23:46 46.41341 21.73461 34225 ft 448 kts 319°
2026-05-03 23:47 46.45576 21.66906 34227 ft 448 kts 319°
2026-05-03 23:47 46.49834 21.60302 34218 ft 447 kts 319°
2026-05-03 23:48 46.54070 21.53717 34215 ft 447 kts 319°
2026-05-03 23:48 46.58283 21.47151 34215 ft 448 kts 319°
2026-05-03 23:49 46.62525 21.40524 34212 ft 447 kts 319°
2026-05-03 23:49 46.66747 21.33909 34218 ft 447 kts 319°
2026-05-03 23:50 46.70944 21.27321 34212 ft 448 kts 319°
2026-05-03 23:50 46.75177 21.20658 34217 ft 447 kts 318°
2026-05-03 23:51 46.79374 21.14034 34216 ft 448 kts 319°
2026-05-03 23:51 46.83575 21.07388 34228 ft 447 kts 318°
2026-05-03 23:52 46.87790 21.00703 34216 ft 446 kts 319°
2026-05-03 23:52 46.91967 20.94066 34212 ft 446 kts 319°
2026-05-03 23:53 46.96148 20.87404 34212 ft 447 kts 318°
2026-05-03 23:53 47.00346 20.80698 34210 ft 447 kts 318°
2026-05-03 23:54 47.04507 20.74033 34205 ft 446 kts 318°
2026-05-03 23:54 47.08691 20.67315 34207 ft 446 kts 318°
2026-05-03 23:55 47.12843 20.60635 34212 ft 446 kts 318°
2026-05-03 23:55 47.17001 20.53928 34212 ft 446 kts 318°
2026-05-03 23:56 47.21177 20.47170 34211 ft 446 kts 318°
2026-05-03 23:56 47.25320 20.40448 34211 ft 445 kts 317°
2026-05-03 23:57 47.29456 20.33723 34208 ft 446 kts 317°
2026-05-03 23:57 47.33595 20.26979 34207 ft 446 kts 317°
2026-05-03 23:58 47.37761 20.20171 34200 ft 447 kts 316°
2026-05-03 23:58 47.41900 20.13393 34197 ft 447 kts 316°
2026-05-03 23:59 47.46046 20.06576 34198 ft 446 kts 316°
2026-05-03 23:59 47.50164 19.99797 34189 ft 446 kts 316°
2026-05-04 00:00 47.54307 19.92957 34190 ft 447 kts 316°
2026-05-04 00:00 47.58428 19.86134 34193 ft 446 kts 316°
2026-05-04 00:01 47.62561 19.79290 34197 ft 446 kts 316°
2026-05-04 00:01 47.66727 19.72550 34198 ft 446 kts 317°
2026-05-04 00:02 47.70890 19.65814 34198 ft 446 kts 316°
2026-05-04 00:02 47.75058 19.59043 34196 ft 445 kts 316°
2026-05-04 00:03 47.79206 19.52279 34197 ft 445 kts 316°
2026-05-04 00:03 47.83364 19.45483 34198 ft 445 kts 316°
2026-05-04 00:04 47.87513 19.38685 34198 ft 445 kts 316°
2026-05-04 00:04 47.91645 19.31894 34199 ft 445 kts 315°
2026-05-04 00:05 47.95783 19.25075 34200 ft 444 kts 315°
2026-05-04 00:05 47.99925 19.18231 34199 ft 444 kts 315°
2026-05-04 00:06 48.04027 19.11435 34201 ft 445 kts 315°
2026-05-04 00:06 48.08146 19.04599 34200 ft 444 kts 315°
2026-05-04 00:07 48.12275 18.97727 34197 ft 444 kts 315°
2026-05-04 00:07 48.84302 17.74433 34176 ft 446 kts 309°
2026-05-04 00:08 48.87716 17.66587 34163 ft 448 kts 303°
2026-05-04 00:08 48.90592 17.58197 34167 ft 449 kts 298°
2026-05-04 00:09 48.93284 17.49677 34155 ft 450 kts 298°
2026-05-04 00:09 48.95967 17.41148 34153 ft 450 kts 298°
2026-05-04 00:10 48.98657 17.32585 34159 ft 450 kts 297°
2026-05-04 00:10 49.01347 17.24006 34145 ft 451 kts 298°
2026-05-04 00:11 49.04030 17.15425 34146 ft 451 kts 298°
2026-05-04 00:11 49.06713 17.06818 34146 ft 450 kts 297°
2026-05-04 00:12 49.09384 16.98215 34146 ft 450 kts 297°
2026-05-04 00:12 49.12036 16.89638 34145 ft 450 kts 298°
2026-05-04 00:13 49.14698 16.81006 34148 ft 450 kts 298°
2026-05-04 00:13 49.17352 16.72372 34148 ft 450 kts 298°
2026-05-04 00:14 49.19990 16.63760 34146 ft 450 kts 297°
2026-05-04 00:14 49.22635 16.55092 34147 ft 450 kts 297°
2026-05-04 00:15 49.25257 16.46466 34144 ft 449 kts 297°
2026-05-04 00:15 49.27871 16.37837 34145 ft 449 kts 297°
2026-05-04 00:16 49.30484 16.29185 34148 ft 449 kts 297°
2026-05-04 00:16 49.33078 16.20565 34145 ft 449 kts 297°
2026-05-04 00:17 49.35689 16.11857 34136 ft 448 kts 296°
2026-05-04 00:17 49.38270 16.03208 34129 ft 448 kts 296°
2026-05-04 00:18 49.40879 15.94546 34126 ft 447 kts 298°
2026-05-04 00:18 49.43727 15.86108 33861 ft 448 kts 300°
2026-05-04 00:19 49.45158 15.81929 33222 ft 447 kts 300°
2026-05-04 00:19 49.46599 15.77713 32515 ft 447 kts 299°
2026-05-04 00:19 49.48038 15.73493 31771 ft 447 kts 299°
2026-05-04 00:19 49.49459 15.69314 31012 ft 448 kts 299°
2026-05-04 00:20 49.50901 15.65060 30225 ft 448 kts 299°
2026-05-04 00:20 49.52323 15.60855 29422 ft 449 kts 298°
2026-05-04 00:20 49.53760 15.56603 28603 ft 449 kts 298°
2026-05-04 00:20 49.55180 15.52393 27781 ft 449 kts 298°
2026-05-04 00:21 49.56614 15.48132 26935 ft 449 kts 298°
2026-05-04 00:21 49.58049 15.43861 26070 ft 450 kts 298°
2026-05-04 00:21 49.59476 15.39607 25187 ft 450 kts 298°
2026-05-04 00:21 49.60898 15.35358 24257 ft 451 kts 297°
2026-05-04 00:22 49.62318 15.31109 23304 ft 452 kts 296°
2026-05-04 00:22 49.63749 15.26820 22582 ft 452 kts 296°
2026-05-04 00:22 49.65189 15.22493 21977 ft 452 kts 296°
2026-05-04 00:22 49.66615 15.18201 21359 ft 448 kts 296°
2026-05-04 00:23 49.68013 15.13988 20744 ft 444 kts 296°
2026-05-04 00:23 49.69463 15.09834 20120 ft 439 kts 298°
2026-05-04 00:23 49.71054 15.05829 19499 ft 436 kts 302°
2026-05-04 00:23 49.72772 15.02020 19128 ft 439 kts 305°
2026-05-04 00:24 49.74623 14.98259 19074 ft 440 kts 306°
2026-05-04 00:24 49.76496 14.94524 19024 ft 438 kts 306°
2026-05-04 00:24 49.78351 14.90835 18461 ft 435 kts 306°
2026-05-04 00:24 49.80359 14.87205 17491 ft 438 kts 315°
2026-05-04 00:25 49.82910 14.84568 16665 ft 440 kts 333°
2026-05-04 00:25 49.85859 14.83166 15983 ft 437 kts 348°
2026-05-04 00:25 49.88955 14.82426 15284 ft 432 kts 351°
2026-05-04 00:25 49.92043 14.81759 14532 ft 429 kts 351°
2026-05-04 00:26 49.95114 14.81072 13803 ft 425 kts 351°
2026-05-04 00:26 49.98116 14.80263 13091 ft 420 kts 346°
2026-05-04 00:26 50.01046 14.78939 12495 ft 411 kts 339°
2026-05-04 00:26 50.03804 14.76819 11913 ft 399 kts 321°
2026-05-04 00:27 50.05712 14.73194 11379 ft 381 kts 293°
2026-05-04 00:27 50.06263 14.68891 11082 ft 355 kts 265°
2026-05-04 00:27 50.05498 14.65118 10868 ft 330 kts 238°
2026-05-04 00:27 50.04127 14.61960 10667 ft 312 kts 235°
2026-05-04 00:28 50.02884 14.58891 10472 ft 297 kts 239°
2026-05-04 00:28 50.01835 14.55877 10300 ft 283 kts 242°
2026-05-04 00:28 50.00905 14.52931 10141 ft 272 kts 244°
2026-05-04 00:28 50.00424 14.49811 9793 ft 273 kts 272°
2026-05-04 00:29 50.01063 14.46658 9364 ft 277 kts 302°
2026-05-04 00:29 50.02671 14.44363 8943 ft 279 kts 332°
2026-05-04 00:29 50.04802 14.43470 8526 ft 279 kts
2026-05-04 00:29 50.06861 14.44340 8129 ft 277 kts 32°
2026-05-04 00:30 50.08352 14.46722 7728 ft 273 kts 63°
2026-05-04 00:30 50.09218 14.49659 7328 ft 272 kts 68°
2026-05-04 00:30 50.10018 14.52570 6979 ft 270 kts 68°
2026-05-04 00:30 50.10825 14.55424 6649 ft 267 kts 67°
2026-05-04 00:31 50.11669 14.58335 6126 ft 272 kts 67°
2026-05-04 00:31 50.12589 14.61189 5658 ft 274 kts 56°
2026-05-04 00:31 50.14205 14.63113 5211 ft 276 kts 20°
2026-05-04 00:31 50.16262 14.63308 4805 ft 275 kts 347°
2026-05-04 00:32 50.18113 14.62110 4418 ft 274 kts 334°
2026-05-04 00:32 50.19750 14.60361 3958 ft 275 kts 309°
2026-05-04 00:32 50.20486 14.57425 3651 ft 264 kts 269°
2026-05-04 00:32 50.19972 14.54520 3502 ft 244 kts 242°
2026-05-04 00:33 50.19145 14.52071 3480 ft 227 kts 240°
2026-05-04 00:33 50.17704 14.47611 3511 ft 189 kts 242°
2026-05-04 00:33 50.17116 14.45677 3458 ft 168 kts 242°
2026-05-04 00:34 50.16572 14.43875 3365 ft 159 kts 242°
2026-05-04 00:34 50.16071 14.42206 3117 ft 152 kts 242°
2026-05-04 00:34 50.15623 14.40699 2918 ft 152 kts 243°
2026-05-04 00:34 50.15186 14.39196 2744 ft 151 kts 242°
2026-05-04 00:35 50.14731 14.37722 2573 ft 151 kts 243°
2026-05-04 00:35 50.14287 14.36258 2399 ft 150 kts 242°
2026-05-04 00:35 50.13832 14.34784 2195 ft 150 kts 242°
2026-05-04 00:35 50.13372 14.33307 2012 ft 149 kts 242°
2026-05-04 00:36 50.12929 14.31838 1822 ft 149 kts 243°
2026-05-04 00:36 50.12494 14.30378 1634 ft 150 kts 243°
2026-05-04 00:36 50.12065 14.28924 1437 ft 147 kts 243°
2026-05-04 00:36 50.11628 14.27480 1238 ft 147 kts 243°
2026-05-04 00:37 50.11210 14.26074 1156 ft 135 kts 244°
2026-05-04 00:37 50.10876 14.24973 1161 ft 77 kts 245°
2026-05-04 00:37 50.10708 14.24407 1166 ft 50 kts 244°
2026-05-04 00:37 50.10608 14.24028 1175 ft 32 kts 247°
2026-05-04 00:38 50.10520 14.23733 1182 ft 26 kts 242°
2026-05-04 00:38 50.10439 14.23520 1184 ft 11 kts 227°
2026-05-04 00:38 50.10390 14.23452 1187 ft 8 kts 221°
2026-05-04 00:38 50.10347 14.23407 1188 ft 6 kts 192°
2026-05-04 00:39 50.10303 14.23408 1189 ft 6 kts 161°
2026-05-04 00:39 50.10260 14.23452 1188 ft 8 kts 140°
2026-05-04 00:39 50.10225 14.23544 1186 ft 11 kts 105°
2026-05-04 00:39 50.10229 14.23675 1184 ft 13 kts 81°
2026-05-04 00:40 50.10245 14.23826 1182 ft 15 kts 80°
2026-05-04 00:40 50.10265 14.23998 1181 ft 16 kts 80°
2026-05-04 00:40 50.10290 14.24185 1177 ft 18 kts 77°
2026-05-04 00:40 50.10317 14.24392 1173 ft 20 kts 79°
2026-05-04 00:41 50.10344 14.24620 1171 ft 21 kts 80°
2026-05-04 00:41 50.10370 14.24838 1174 ft 19 kts 79°
2026-05-04 00:41 50.10397 14.25041 1174 ft 18 kts 77°
2026-05-04 00:41 50.10422 14.25232 1177 ft 16 kts 78°
2026-05-04 00:42 50.10444 14.25411 1176 ft 17 kts 79°
2026-05-04 00:42 50.10465 14.25602 1175 ft 17 kts 81°
2026-05-04 00:42 50.10488 14.25798 1174 ft 17 kts 73°
2026-05-04 00:42 50.10539 14.25975 1176 ft 16 kts 37°
2026-05-04 00:43 50.10647 14.26083 1171 ft 18 kts 36°
2026-05-04 00:43 50.10753 14.26193 1168 ft 13 kts 34°
2026-05-04 00:43 50.10811 14.26289 1167 ft 6 kts 78°
2026-05-04 00:43 50.10803 14.26348 1169 ft 4 kts 123°
2026-05-04 00:44 50.10799 14.26367 1170 ft 0 kts 90°
2026-05-04 00:44 50.10803 14.26383 1170 ft 3 kts 58°
2026-05-04 00:44 50.10822 14.26409 1171 ft 3 kts 36°
2026-05-04 00:44 50.10846 14.26435 1171 ft 4 kts 34°
2026-05-04 00:45 50.10854 14.26444 1171 ft 0 kts 34°